Location: North Evanston
(42.0634°N, 87.6976°W)
Time: 03:47:13
(UTC+00:00)

Transit 2A Rocket - Pass Details

Date: 22 May 2026
Orbit: 589 x 893 km, 66.7° (Epoch: 9 June)

Event Time Altitude Azimuth Distance (km) Brightness Sun altitude
Rises 09:21:14 0° 310° (NW) 2,907 7.9 -10.4°
Reaches altitude 10° 09:24:38 10° 283° (WNW) 1,953 6.8 -9.9°
Maximum altitude 09:26:39 13° 255° (WSW) 1,737 6.3 -9.6°
Enters shadow 09:27:35 12° 241° (WSW) 1,773 6.3 -9.5°
